When you browse on this site, cookies collect data to enhance your experience and personalize the content and advertising you see.
Visit our Privacy Policy to learn more. By continuing to use the site, you agree to this use of cookies and data.
  • In Hungary
  • List of Countries
  • For 7 days
  • Water Temperature
  • Weather Map
  • News
  • Weather Widgets
  • user-avatar
    Login

    Hourly Weather Molstowo

    Today, 20 September, Friday

    Time Temperature Precipitation Wind Pressure Humidity
    00:00 +9°C° 0 mm 3 mps 767 mmHg 70%
    01:00 +9°C° 0 mm 3 mps 766 mmHg 71%
    02:00 +9°C° 0 mm 3 mps 766 mmHg 73%
    03:00 +8°C° 0 mm 3 mps 766 mmHg 75%
    04:00 +8°C° 0 mm 3 mps 766 mmHg 77%
    05:00 +8°C° 0 mm 3 mps 766 mmHg 79%
    06:00 +9°C° 0 mm 3 mps 766 mmHg 81%
    07:00 +9°C° 0 mm 3 mps 766 mmHg 84%
    08:00 +10°C° 0.1 mm 4 mps 766 mmHg 80%
    09:00 +12°C° 0.1 mm 5 mps 766 mmHg 77%
    10:00 +13°C° 0.1 mm 5 mps 766 mmHg 73%
    11:00 +13°C° 0 mm 5 mps 766 mmHg 73%
    12:00 +13°C° 0 mm 6 mps 766 mmHg 73%
    13:00 +13°C° 0 mm 6 mps 765 mmHg 73%
    14:00 +13°C° 0 mm 6 mps 765 mmHg 75%
    15:00 +13°C° 0 mm 6 mps 765 mmHg 77%
    16:00 +12°C° 0 mm 7 mps 764 mmHg 79%
    17:00 +13°C° 0.1 mm 6 mps 764 mmHg 80%
    18:00 +13°C° 0.1 mm 6 mps 764 mmHg 82%
    19:00 +13°C° 0.1 mm 6 mps 764 mmHg 83%
    20:00 +13°C° 0 mm 6 mps 764 mmHg 85%
    21:00 +13°C° 0 mm 6 mps 764 mmHg 86%
    22:00 +13°C° 0 mm 6 mps 764 mmHg 87%
    23:00 +11°C° 0 mm 6 mps 763 mmHg 90%

    Tomorrow, 21 September, Saturday

    Time Temperature Precipitation Wind Pressure Humidity
    00:00 +12°C° 0 mm 5 mps 763 mmHg 93%
    01:00 +10°C° 0 mm 5 mps 763 mmHg 95%
    02:00 +12°C° 0 mm 5 mps 763 mmHg 95%
    03:00 +12°C° 0 mm 5 mps 763 mmHg 94%
    04:00 +12°C° 0 mm 5 mps 763 mmHg 94%
    05:00 +12°C° 0 mm 5 mps 763 mmHg 92%
    06:00 +12°C° 0 mm 5 mps 763 mmHg 90%
    07:00 +13°C° 0 mm 5 mps 763 mmHg 89%
    08:00 +13°C° 0 mm 5 mps 763 mmHg 87%
    09:00 +13°C° 0 mm 5 mps 763 mmHg 85%
    10:00 +14°C° 0 mm 5 mps 763 mmHg 83%
    11:00 +14°C° 0 mm 5 mps 763 mmHg 81%
    12:00 +15°C° 0 mm 4 mps 763 mmHg 78%
    13:00 +15°C° 0 mm 4 mps 763 mmHg 76%
    14:00 +17°C° 0 mm 4 mps 762 mmHg 74%
    15:00 +17°C° 0 mm 3 mps 762 mmHg 72%
    16:00 +18°C° 0 mm 2 mps 762 mmHg 69%
    17:00 +16°C° 0 mm 2 mps 762 mmHg 75%
    18:00 +15°C° 0 mm 1 mps 762 mmHg 81%
    19:00 +14°C° 0 mm 1 mps 762 mmHg 86%
    20:00 +13°C° 0 mm 1 mps 762 mmHg 87%
    21:00 +13°C° 0 mm 1 mps 762 mmHg 87%
    22:00 +13°C° 0 mm 2 mps 762 mmHg 88%
    23:00 +13°C° 0 mm 2 mps 762 mmHg 88%

    Day after tomorrow, 22 September, Sunday

    Time Temperature Precipitation Wind Pressure Humidity
    00:00 +13°C° 0 mm 2 mps 761 mmHg 88%
    01:00 +11°C° 0 mm 3 mps 761 mmHg 89%
    02:00 +11°C° 0 mm 3 mps 761 mmHg 89%
    03:00 +11°C° 0 mm 3 mps 761 mmHg 89%
    04:00 +11°C° 0 mm 3 mps 761 mmHg 89%
    05:00 +12°C° 0 mm 2 mps 761 mmHg 87%
    06:00 +12°C° 0 mm 2 mps 760 mmHg 86%
    07:00 +13°C° 0 mm 2 mps 760 mmHg 84%
    08:00 +15°C° 0 mm 2 mps 760 mmHg 76%
    09:00 +17°C° 0 mm 2 mps 760 mmHg 68%
    10:00 +19°C° 0 mm 2 mps 760 mmHg 60%
    11:00 +20°C° 0 mm 2 mps 760 mmHg 56%
    12:00 +21°C° 0 mm 2 mps 760 mmHg 52%
    13:00 +23°C° 0 mm 2 mps 759 mmHg 47%
    14:00 +23°C° 0 mm 2 mps 759 mmHg 49%
    15:00 +23°C° 0 mm 2 mps 758 mmHg 51%
    16:00 +22°C° 0 mm 3 mps 758 mmHg 53%
    17:00 +20°C° 0 mm 3 mps 758 mmHg 57%
    18:00 +18°C° 0 mm 3 mps 758 mmHg 62%
    19:00 +15°C° 0 mm 4 mps 757 mmHg 67%
    20:00 +15°C° 0 mm 4 mps 757 mmHg 69%
    21:00 +14°C° 0 mm 4 mps 757 mmHg 70%
    22:00 +13°C° 0 mm 4 mps 757 mmHg 72%
    23:00 +13°C° 0 mm 4 mps 757 mmHg 71%

    23 September, Monday

    Time Temperature Precipitation Wind Pressure Humidity
    00:00 +13°C° 0 mm 4 mps 757 mmHg 70%
    01:00 +12°C° 0 mm 4 mps 756 mmHg 70%
    02:00 +12°C° 0 mm 4 mps 756 mmHg 68%
    03:00 +12°C° 0 mm 4 mps 756 mmHg 67%
    04:00 +12°C° 0 mm 4 mps 756 mmHg 65%
    05:00 +12°C° 0 mm 4 mps 755 mmHg 67%
    06:00 +12°C° 0 mm 4 mps 755 mmHg 68%
    07:00 +12°C° 0 mm 4 mps 755 mmHg 70%
    08:00 +14°C° 0 mm 4 mps 755 mmHg 65%
    09:00 +17°C° 0 mm 4 mps 755 mmHg 60%
    10:00 +19°C° 0 mm 4 mps 755 mmHg 55%
    11:00 +20°C° 0 mm 4 mps 755 mmHg 52%
    12:00 +21°C° 0 mm 4 mps 755 mmHg 50%
    13:00 +22°C° 0 mm 4 mps 754 mmHg 47%
    14:00 +22°C° 0 mm 4 mps 754 mmHg 49%
    15:00 +22°C° 0 mm 4 mps 754 mmHg 52%
    16:00 +21°C° 0 mm 4 mps 754 mmHg 54%
    17:00 +20°C° 0 mm 3 mps 754 mmHg 59%
    18:00 +18°C° 0 mm 3 mps 754 mmHg 64%
    19:00 +16°C° 0 mm 3 mps 755 mmHg 70%
    20:00 +14°C° 0 mm 3 mps 755 mmHg 69%
    21:00 +15°C° 0 mm 2 mps 755 mmHg 69%
    22:00 +14°C° 0 mm 2 mps 755 mmHg 68%
    23:00 +14°C° 0 mm 2 mps 755 mmHg 70%

    24 September, Tuesday

    Time Temperature Precipitation Wind Pressure Humidity
    00:00 +14°C° 0 mm 2 mps 755 mmHg 71%
    01:00 +13°C° 0 mm 2 mps 756 mmHg 73%
    02:00 +13°C° 0 mm 2 mps 756 mmHg 75%
    03:00 +13°C° 0 mm 2 mps 756 mmHg 76%
    04:00 +12°C° 0 mm 1 mps 756 mmHg 78%
    05:00 +13°C° 0 mm 2 mps 756 mmHg 79%
    06:00 +13°C° 0 mm 2 mps 756 mmHg 79%
    07:00 +13°C° 0 mm 2 mps 756 mmHg 79%
    08:00 +15°C° 0 mm 2 mps 757 mmHg 74%
    09:00 +17°C° 0 mm 2 mps 757 mmHg 68%
    10:00 +19°C° 0 mm 2 mps 757 mmHg 63%
    11:00 +20°C° 0 mm 2 mps 757 mmHg 60%
    12:00 +20°C° 0 mm 2 mps 757 mmHg 57%
    13:00 +21°C° 0 mm 2 mps 757 mmHg 54%
    14:00 +21°C° 0 mm 2 mps 757 mmHg 56%
    15:00 +21°C° 0 mm 2 mps 757 mmHg 58%
    16:00 +21°C° 0 mm 2 mps 756 mmHg 59%
    17:00 +19°C° 0 mm 2 mps 756 mmHg 64%
    18:00 +18°C° 0 mm 2 mps 756 mmHg 69%
    19:00 +17°C° 0 mm 3 mps 756 mmHg 73%
    20:00 +17°C° 0 mm 2 mps 756 mmHg 73%
    21:00 +16°C° 0 mm 2 mps 756 mmHg 73%
    22:00 +16°C° 0 mm 2 mps 756 mmHg 74%
    23:00 +16°C° 0 mm 2 mps 756 mmHg 74%

    25 September, Wednesday

    Time Temperature Precipitation Wind Pressure Humidity
    00:00 +15°C° 0 mm 2 mps 755 mmHg 74%
    01:00 +14°C° 0 mm 3 mps 755 mmHg 74%
    02:00 +14°C° 0 mm 3 mps 755 mmHg 76%
    03:00 +14°C° 0 mm 3 mps 754 mmHg 77%
    04:00 +14°C° 0 mm 3 mps 754 mmHg 78%
    05:00 +14°C° 0.1 mm 3 mps 754 mmHg 82%
    06:00 +14°C° 0.1 mm 3 mps 753 mmHg 86%
    07:00 +14°C° 0.1 mm 3 mps 753 mmHg 89%
    08:00 +16°C° 0.2 mm 3 mps 753 mmHg 86%
    09:00 +17°C° 0.2 mm 3 mps 753 mmHg 82%
    10:00 +18°C° 0.2 mm 3 mps 753 mmHg 78%
    11:00 +18°C° 1 mm 2 mps 752 mmHg 81%
    12:00 +17°C° 1 mm 2 mps 752 mmHg 84%
    13:00 +17°C° 1 mm 2 mps 752 mmHg 87%
    14:00 +16°C° 0.3 mm 2 mps 752 mmHg 87%
    15:00 +16°C° 0.3 mm 2 mps 751 mmHg 88%
    16:00 +16°C° 0.3 mm 2 mps 751 mmHg 88%
    17:00 +16°C° 0.2 mm 2 mps 751 mmHg 89%
    18:00 +15°C° 0.2 mm 2 mps 751 mmHg 90%
    19:00 +15°C° 0.2 mm 2 mps 751 mmHg 90%
    20:00 +15°C° 0 mm 2 mps 750 mmHg 91%
    21:00 +15°C° 0 mm 2 mps 750 mmHg 92%
    22:00 +14°C° 0 mm 2 mps 750 mmHg 92%
    23:00 +14°C° 0 mm 2 mps 750 mmHg 93%
    Show more